DW9768 Weather Reports


Display with metric or nautical units.
time (UTC)temp
F
wind
direction
speed
MPH
gust
MPH
rain 1hr
in
rain 24hr
in
rain mn
in
humidity
%
barometer
mb
20260502210036 46 316 3.0 10.0 0.00 0.03 0.03 87 1011.3
20260502204535 46 313 5.0 9.0 0.00 0.03 0.03 86 1011.3
20260502203038 46 323 5.0 11.0 0.00 0.03 0.03 85 1011.5
20260502201527 47 289 5.0 8.0 0.00 0.03 0.03 84 1011.4
20260502200043 47 296 4.0 8.0 0.00 0.03 0.03 83 1011.4
20260502194523 47 279 4.0 7.0 0.00 0.03 0.03 81 1011.2
20260502193024 48 313 2.0 9.0 0.00 0.03 0.03 81 1010.9
20260502191523 48 331 4.0 12.0 0.00 0.03 0.03 80 1010.9
20260502190020 49 276 3.0 7.0 0.00 0.03 0.03 83 1010.9
20260502184523 49 321 2.0 10.0 0.00 0.03 0.03 82 1010.9
20260502183017 49 344 7.0 11.0 0.00 0.03 0.03 82 1010.8
20260502181522 49 325 7.0 11.0 0.00 0.03 0.03 82 1010.7
20260502163007 51 335 4.0 8.0 0.00 0.03 0.03 77 1010.7
20260502161505 50 331 3.0 9.0 0.00 0.03 0.03 77 1010.7
20260502151611 52 321 5.0 10.0 0.00 0.03 0.03 72 1011.2
20260502150158 53 325 4.0 10.0 0.00 0.03 0.03 71 1011.3
20260502123043 48 344 6.0 10.0 0.02 0.03 0.03 79 1012.5
20260502121541 48 323 3.0 8.0 0.03 0.03 0.03 78 1012.5
20260502114540 49 321 2.0 4.0 0.02 0.02 0.02 74 1012.6
20260502113046 50 308 1.0 3.0 0.02 0.02 0.02 74 1012.6
20260502111542 50 262 0.0 3.0 0.00 0.00 0.00 72 1012.4
20260502110037 50 333 0.0 3.0 0.00 0.00 0.00 74 1012.2
20260502104534 50 329 1.0 4.0 0.00 0.00 0.00 73 1012.3
20260502103056 50 328 0.0 0.0 0.00 0.00 0.00 70 1012.7
20260502101545 50 344 0.0 0.0 0.00 0.00 0.00 72 1012.8
20260502091526 50 331 1.0 3.0 0.00 0.00 0.00 73 1013.1
20260502071521 51 126 0.0 0.0 0.00 0.00 0.00 68 1013.4
20260502070019 51 103 0.0 3.0 0.00 0.00 0.00 59 1013.2
20260502064518 51 69 1.0 4.0 0.00 0.00 0.00 58 1013.1
20260502063018 52 92 1.0 4.0 0.00 0.00 0.00 59 1013.1
20260502061517 52 34 0.0 2.0 0.00 0.00 0.00 64 1013.3
20260502060017 52 43 0.0 2.0 0.00 0.00 0.00 63 1013.3
20260502054515 51 355 0.0 0.0 0.00 0.00 0.00 61 1013.2
20260502053012 50 60 0.0 0.0 0.00 0.00 0.00 64 1013.3
20260502051512 48 53 0.0 0.0 0.00 0.00 0.00 68 1013.4
20260502050009 48 111 0.0 0.0 0.00 0.00 0.00 71 1013.6
20260502044507 47 30 0.0 0.0 0.00 0.00 0.00 66 1013.8
20260502043007 47 30 0.0 0.0 0.00 0.00 0.00 66 1013.7
20260502041504 47 37 0.0 0.0 0.00 0.00 0.00 61 1013.9
20260502040002 47 37 0.0 0.0 0.00 0.00 0.00 61 1014.3
20260502034603 47 37 0.0 0.0 0.00 0.00 0.00 62 1014.3
20260502034501 47 37 0.0 0.0 0.00 0.00 0.00 62 1014.3
20260502033100 47 74 0.0 0.0 0.00 0.00 0.00 63 1014.3
20260502031558 47 63 0.0 3.0 0.00 0.00 0.00 64 1014.5
20260502030106 47 44 0.0 2.0 0.00 0.00 0.00 63 1014.7
20260502024552 48 63 0.0 1.0 0.00 0.00 0.00 62 1014.9
20260502023056 47 67 0.0 0.0 0.00 0.00 0.00 63 1015.2
20260502021549 47 76 0.0 3.0 0.00 0.00 0.00 63 1015.3
20260502020047 48 75 0.0 0.0 0.00 0.00 0.00 62 1015.5
20260502014543 48 87 0.0 2.0 0.00 0.00 0.00 61 1015.7
20260502013044 49 120 0.0 2.0 0.00 0.00 0.00 60 1016.0
20260502011540 50 126 0.0 4.0 0.00 0.00 0.00 58 1016.3
20260502010042 50 74 3.0 7.0 0.00 0.00 0.00 60 1016.4
20260502004535 49 85 3.0 8.0 0.00 0.01 0.00 63 1016.5
20260502003033 49 144 0.0 4.0 0.00 0.01 0.00 66 1016.7
20260502001532 48 144 3.0 6.0 0.00 0.01 0.00 67 1017.0
20260502000027 48 126 0.0 3.0 0.00 0.01 0.00 65 1017.1
20260501234524 49 166 1.0 4.0 0.00 0.01 0.00 64 1017.2
20260501233022 49 198 1.0 4.0 0.00 0.01 0.00 67 1017.4
20260501231521 49 205 2.0 4.0 0.00 0.01 0.00 67 1017.4
20260501230022 49 194 3.0 7.0 0.00 0.01 0.00 67 1017.6
20260501224515 50 192 4.0 9.0 0.00 0.01 0.00 65 1017.7
20260501223031 50 192 4.0 7.0 0.00 0.01 0.00 64 1017.8
20260501221511 51 205 4.0 6.0 0.00 0.01 0.00 62 1017.8
20260501220008 51 215 3.0 7.0 0.00 0.01 0.00 61 1018.1
20260501214519 51 192 4.0 7.0 0.00 0.01 0.01 59 1018.1
20260501213006 51 190 5.0 9.0 0.00 0.01 0.01 58 1018.1
20260501211505 52 197 6.0 9.0 0.00 0.01 0.01 58 1018.3